Temperature
10 10 10 10 10 10 10 10 10 10 10 10 11 11 11 11 11 12 12 12 12 12 12 12 12 13 13 13 14 14 14 15 15 16 15 14 14 14 14 15 15 15 15
9 9 9 8 9 9 9 9 9 9 9 10 10 10 11 11 11 11 11 12 12 12 11 11 12 12 12 13 13 13 14 14 14 15 14 14 13 14 14 14 13 13 14
8 8 8 8 8 8 8 8 8 8 8 9 9 10 10 11 11 11 11 11 11 11 11 11 11 11 11 12 12 13 13 13 14 14 14 14 14 13 14 13 13 12 13
7 7 7 7 7 7 7 7 7 7 7 8 8 9 9 10 10 10 11 11 11 11 11 11 11 11 11 11 11 12 12 13 13 14 14 14 14 13 13 13 12 12 12
6 6 6 6 6 6 6 6 6 6 6 7 7 8 8 9 10 10 10 10 10 10 10 10 10 10 11 10 11 11 12 12 13 13 13 14 14 13 13 12 12 12 12
6 6 6 6 6 6 6 5 5 5 5 5 6 6 7 8 10 10 10 10 10 10 10 10 10 10 10 10 10 10 11 11 12 12 13 14 14 13 13 12 12 12 11
6 6 6 5 5 5 5 5 5 5 5 5 5 5 6 7 8 9 10 10 10 10 10 10 10 10 10 9 10 10 10 10 11 11 12 13 13 13 13 12 12 12 12
6 6 5 5 5 5 5 4 4 4 4 4 4 5 5 6 7 8 9 9 9 10 10 10 10 10 9 9 9 9 10 10 10 11 11 12 13 13 13 13 12 12 12
6 6 5 5 5 5 4 4 4 4 4 4 4 4 5 5 7 8 9 9 9 9 10 10 10 10 10 9 9 9 10 10 10 10 11 12 12 12 13 12 11 11 11
6 5 5 5 5 4 4 4 4 4 4 4 4 4 4 5 6 7 8 8 9 9 9 10 10 10 10 10 10 9 10 10 10 10 11 12 12 12 12 12 12 11 11
5 5 5 5 5 5 5 4 4 4 4 4 4 4 4 5 6 7 8 8 9 9 10 10 10 10 10 10 10 10 10 10 10 10 11 11 12 12 12 12 11 12 12
5 5 5 5 5 5 5 5 4 4 4 4 4 4 4 5 5 6 7 8 8 9 10 10 10 10 10 10 10 10 10 10 10 10 10 11 11 11 12 11 11 11 12
5 5 5 5 5 5 5 5 5 4 4 4 4 4 5 5 5 6 6 7 8 8 9 9 9 9 9 9 10 10 10 10 10 10 10 11 11 11 11 11 11 11 11
5 5 5 5 5 5 5 5 5 5 4 4 4 4 5 5 5 5 6 7 7 8 8 8 9 9 9 9 9 9 9 10 10 10 10 11 11 11 10 10 10 10 9
5 5 5 5 6 6 6 6 5 5 4 4 4 4 5 5 5 5 6 6 7 7 8 8 8 8 8 9 9 9 9 9 10 10 10 10 10 10 10 10 10 9 9
5 5 5 6 6 6 6 6 6 5 5 5 5 5 4 4 5 5 5 6 6 7 7 8 8 8 9 9 9 9 9 9 10 10 10 10 10 10 10 9 9 9 9
6 5 5 6 6 6 6 6 6 6 5 5 5 5 5 5 5 5 5 6 6 6 6 7 8 8 9 9 9 9 9 9 9 9 10 10 10 10 9 9 9 9 9
6 6 6 6 6 6 7 7 6 6 6 5 5 5 5 5 5 5 5 5 5 6 6 7 7 8 8 9 9 9 9 9 9 9 9 10 10 9 9 9 9 9 10
6 6 6 6 7 7 7 7 7 6 6 6 5 5 5 5 6 6 6 5 6 6 6 7 7 8 8 9 9 8 8 9 9 9 9 9 9 9 9 9 9 10 10
6 6 6 6 7 7 7 7 7 7 6 6 6 6 5 5 6 6 6 6 6 6 6 7 7 8 8 8 8 8 8 8 8 9 9 9 9 9 9 9 10 10 11
6 6 6 7 7 7 8 7 7 7 7 6 6 6 6 6 6 6 6 6 6 6 7 7 7 8 8 8 8 8 8 8 8 9 9 9 9 9 9 10 10 10 11
6 6 7 7 7 8 8 7 7 7 7 7 7 6 7 6 7 7 7 7 7 7 7 7 7 8 8 8 8 8 8 8 8 8 9 9 9 9 10 10 10 11 11
6 6 7 7 7 8 8 8 7 7 7 7 7 7 7 7 7 7 7 7 7 7 7 7 7 7 7 7 7 7 8 8 8 8 9 9 9 10 10 10 11 11 11
6 6 7 7 7 8 8 8 8 8 7 7 7 7 7 7 7 7 7 7 7 7 7 7 7 7 7 7 7 7 7 8 8 9 9 10 10 10 10 10 11 11 11
6 6 6 7 7 7 8 8 8 8 7 7 7 7 7 7 7 7 7 7 7 7 7 7 7 7 7 7 7 7 7 8 8 9 10 10 10 10 10 10 10 10 10
6 6 6 6 7 7 7 8 8 8 8 7 7 7 7 7 7 7 7 7 7 7 7 7 7 7 7 7 7 8 8 8 9 9 10 10 10 10 10 10 10 10 10
Wind_Speed
19 18 18 18 18 18 17 17 16 16 16 16 15 15 15 15 14 12 12 10 10 8 7 6 7 8 9 10 10 11 10 9 8 6 6 5 4 4 5 5 5 6 8
19 18 18 18 18 18 19 18 17 17 17 17 17 17 17 17 17 16 15 13 12 11 10 8 7 6 8 8 9 12 11 10 10 9 7 6 6 6 7 7 5 7 8
18 18 19 19 19 19 18 18 18 18 18 18 18 18 18 18 18 18 17 16 14 13 12 12 10 8 8 6 8 11 10 11 11 9 8 6 6 7 8 8 8 7 8
18 18 18 18 18 19 19 18 18 18 18 19 19 19 19 18 18 19 19 18 16 15 14 13 13 12 10 7 5 8 10 11 11 10 8 8 7 9 9 8 6 5 5
18 18 19 19 19 19 19 18 18 18 18 18 19 19 19 18 17 18 18 19 17 16 15 15 15 15 15 11 7 4 5 7 9 10 10 9 8 10 9 8 8 7 5
18 18 19 19 19 19 19 19 19 18 18 18 18 18 18 17 15 14 16 18 17 17 15 15 14 16 18 17 14 10 6 7 7 9 10 10 10 11 10 10 9 8 4
17 18 18 19 19 20 20 20 19 19 18 18 17 17 17 17 14 13 15 17 17 16 15 12 12 14 17 16 15 14 11 11 12 11 11 11 10 11 13 14 13 11 6
17 18 18 18 20 20 20 20 19 17 16 16 16 16 16 16 14 14 15 17 17 16 14 13 13 11 15 15 14 14 12 11 11 12 13 12 10 9 14 14 13 9 10
17 18 18 19 20 20 19 19 17 16 16 15 15 15 15 15 13 13 14 14 15 16 14 14 13 12 13 13 13 12 12 11 12 15 15 11 7 7 13 12 13 13 8
17 18 19 19 19 19 19 18 15 14 14 14 14 13 13 14 11 13 15 12 13 13 12 11 11 10 13 15 12 11 11 10 10 12 13 12 10 11 17 17 16 15 10
17 18 19 18 18 18 17 15 14 12 12 12 13 12 11 10 8 10 12 10 11 12 12 12 11 14 12 13 10 9 8 7 9 11 12 13 12 12 15 14 15 16 14
17 18 18 18 17 15 16 15 13 11 11 10 10 10 8 6 6 8 8 5 4 8 8 8 8 16 13 12 10 8 5 6 8 10 11 11 12 12 12 11 10 8 6
17 18 18 18 16 15 14 14 12 10 8 8 7 7 6 5 6 9 9 6 5 6 5 4 8 11 10 10 11 9 8 9 9 10 11 11 11 11 12 11 12 12 11
16 17 16 16 15 14 12 10 9 9 8 7 6 5 4 4 6 8 9 9 9 9 8 6 9 8 8 8 9 10 10 9 9 11 11 10 10 12 13 13 13 13 12
15 15 15 15 14 13 12 9 9 8 6 8 7 6 4 4 3 3 6 9 10 10 10 9 9 9 10 11 11 11 10 9 9 10 10 10 11 12 13 14 14 14 12
13 13 12 12 12 12 11 10 5 5 4 5 7 8 5 1 2 1 2 3 2 0 6 10 10 11 11 12 12 11 9 9 8 9 9 11 13 14 13 14 14 15 15
14 13 11 12 11 11 10 10 9 3 3 1 3 4 6 3 2 4 4 3 3 5 9 11 11 11 11 11 10 9 8 7 7 7 9 12 14 15 16 15 15 14 14
15 14 12 11 10 10 10 9 7 7 4 1 2 4 1 3 5 6 7 7 6 8 10 11 11 11 10 10 9 8 6 6 6 7 9 12 15 16 16 16 15 15 16
14 11 10 10 10 9 9 7 6 5 4 3 2 3 3 3 4 5 8 8 8 9 10 10 9 10 9 9 8 7 6 6 7 8 10 13 15 16 16 16 14 16 16
12 15 13 10 9 8 7 6 5 4 3 2 2 2 2 3 3 4 5 5 6 7 8 9 9 9 8 8 7 7 6 6 7 8 10 12 14 14 15 16 15 15 14
11 12 14 10 7 7 7 6 5 4 3 2 2 2 5 2 2 4 5 5 6 7 7 8 8 8 8 7 7 8 8 7 7 9 11 12 13 13 13 13 14 14 14
10 10 10 9 7 6 7 6 5 4 3 2 1 2 3 4 1 2 3 4 5 5 5 6 7 7 7 8 8 8 8 8 8 10 12 13 13 14 14 14 14 14 13
10 10 10 8 7 6 5 4 4 4 4 3 3 2 1 2 1 1 2 2 3 3 4 5 5 5 5 5 6 7 8 9 10 12 14 15 15 14 14 15 16 15 14
10 10 10 9 7 6 5 5 4 4 4 4 3 3 2 2 2 2 2 2 2 3 4 4 3 4 6 6 6 7 7 9 11 13 16 16 16 15 14 14 14 15 14
9 10 10 9 8 6 6 5 4 5 5 4 4 3 3 3 2 2 1 2 2 3 3 3 3 4 6 9 9 8 9 9 8 11 14 15 17 16 16 15 14 14 14
9 9 9 8 8 7 6 5 4 4 4 4 3 3 4 3 3 3 2 1 1 2 3 4 5 6 8 8 11 11 10 8 7 6 11 14 15 15 15 13 16 14 15
Wind_Direction
315 315 313 310 308 305 299 293 288 282 279 273 266 261 254 246 237 228 231 222 226 233 233 238 248 260 260 246 230 223 219 225 227 202 186 169 177 178 141 118 100 88 78
315 312 309 307 305 302 299 299 295 288 280 272 268 264 259 251 241 233 231 226 220 222 224 226 233 248 259 263 251 234 222 216 222 217 197 186 184 172 142 119 104 89 85
314 311 309 307 305 303 302 299 296 291 283 276 269 263 258 254 247 237 234 230 225 224 219 219 221 216 234 244 260 251 234 218 217 218 204 185 181 156 138 120 107 97 91
314 312 309 308 307 305 302 299 295 291 287 279 271 264 258 252 247 241 234 231 229 226 221 217 215 210 213 216 241 261 251 230 213 214 205 192 185 167 158 146 132 116 99
313 310 309 310 308 306 303 301 298 294 289 284 277 267 258 251 245 239 234 230 227 227 224 221 217 210 204 203 205 237 273 253 223 211 207 201 192 175 175 164 146 130 98
310 309 310 310 308 307 305 301 297 294 291 287 280 273 263 252 240 229 232 233 229 227 226 224 221 208 203 198 198 203 232 270 261 230 215 212 201 188 174 161 153 154 137
308 308 308 309 308 306 305 303 299 297 293 288 283 275 266 260 250 227 226 235 231 225 222 220 223 209 196 199 198 200 215 241 262 269 255 236 214 191 175 172 176 172 146
307 310 312 312 309 307 305 301 298 295 291 287 284 278 271 262 245 224 216 230 232 223 215 211 216 207 195 194 192 195 204 216 233 249 257 257 249 203 182 178 163 126 115
310 314 314 312 310 307 304 300 299 295 289 285 282 279 274 266 243 218 209 225 223 219 212 207 205 201 180 183 197 200 204 212 221 237 249 265 289 203 173 160 149 144 135
313 313 313 311 309 307 305 302 299 293 287 284 280 276 273 267 241 210 205 220 214 209 208 206 204 206 169 179 204 206 211 215 216 221 228 231 226 184 167 172 168 163 149
312 310 311 311 310 308 308 305 302 296 289 284 280 275 270 261 221 194 201 219 206 207 200 200 195 169 171 188 216 224 222 224 222 220 221 218 209 192 183 181 178 173 164
308 309 311 313 314 313 312 309 306 302 294 287 281 275 261 241 204 178 188 214 262 215 206 203 158 153 173 192 213 223 214 225 233 224 218 210 198 187 179 172 159 147 139
306 307 310 312 313 311 312 313 311 306 297 292 285 278 255 222 184 169 180 190 221 236 222 76 103 143 174 204 219 212 211 225 229 224 216 206 194 174 156 141 122 106 101
304 306 308 310 311 313 313 314 315 315 311 304 297 284 254 224 200 188 192 194 203 222 232 192 170 180 223 243 203 202 218 226 226 224 214 194 170 155 150 146 139 133 128
304 303 305 308 311 311 312 314 314 316 315 305 307 307 280 243 201 171 203 204 211 214 217 217 218 212 213 215 217 215 215 217 220 223 207 180 163 155 152 151 149 149 148
306 304 303 306 309 311 315 317 291 269 296 287 281 285 289 310 75 161 250 290 311 135 222 224 221 222 221 216 214 211 210 213 216 213 195 176 163 157 154 155 156 156 154
309 304 300 301 306 313 317 321 329 317 198 160 354 302 269 290 248 228 227 229 226 198 221 228 224 222 222 218 216 213 211 206 204 199 186 171 160 157 157 158 160 160 159
314 305 299 296 301 308 314 320 331 338 354 36 80 45 312 227 223 216 198 193 198 205 222 226 224 221 219 218 214 207 206 201 194 189 180 168 160 157 158 161 163 162 160
316 311 306 302 301 306 315 323 335 345 2 19 41 87 91 125 147 174 188 207 202 201 214 223 224 221 216 213 210 202 201 198 192 184 178 167 160 158 160 163 163 161 162
318 312 311 305 303 310 322 330 337 350 3 31 50 63 145 169 153 166 196 211 212 206 210 218 222 221 215 209 203 196 193 190 187 185 175 163 158 158 159 161 161 164 168
318 315 309 302 309 321 329 336 341 353 2 22 52 53 333 274 169 178 196 206 213 211 213 221 223 218 213 208 202 196 190 187 185 179 166 158 154 155 159 161 164 169 171
318 316 316 319 322 326 333 339 347 352 4 3 342 176 243 273 246 198 215 219 221 226 228 230 229 220 210 204 193 187 183 178 174 170 160 156 155 157 160 163 167 173 174
323 324 324 320 318 314 315 349 4 3 2 358 349 329 278 301 303 272 257 245 240 241 241 238 230 217 201 189 178 178 177 174 171 166 159 156 155 156 158 161 164 166 170
328 330 329 329 324 324 339 3 16 14 16 8 357 353 349 341 336 329 298 270 247 248 242 230 217 188 175 162 161 164 166 165 165 165 159 153 151 151 151 154 161 167 171
333 335 334 333 331 328 334 351 16 23 20 11 6 2 12 18 7 346 297 262 243 234 226 205 170 153 152 154 149 146 144 150 160 156 153 150 146 146 149 154 157 160 162
339 339 338 337 336 334 336 342 5 22 28 22 18 21 26 20 10 8 2 24 115 136 138 132 132 136 139 136 131 129 127 128 131 144 149 146 145 147 150 153 155 158 158
Height
1479 1475 1471 1468 1465 1463 1461 1459 1457 1455 1454 1453 1452 1452 1452 1452 1452 1451 1452 1451 1452 1452 1453 1455 1457 1461 1464 1467 1470 1472 1474 1475 1477 1479 1480 1480 1480 1482 1482 1482 1483 1484 1485
1473 1469 1465 1461 1458 1455 1453 1450 1448 1446 1445 1444 1444 1443 1443 1444 1444 1444 1445 1445 1446 1447 1447 1449 1450 1452 1455 1458 1463 1467 1469 1470 1473 1475 1476 1477 1477 1479 1479 1479 1480 1481 1482
1467 1462 1458 1454 1451 1447 1444 1442 1439 1437 1435 1434 1434 1434 1434 1434 1435 1436 1437 1438 1439 1440 1441 1443 1444 1445 1447 1450 1455 1460 1464 1466 1467 1470 1472 1473 1475 1476 1476 1477 1478 1480 1481
1461 1456 1451 1447 1444 1440 1437 1433 1431 1428 1426 1424 1423 1423 1423 1424 1425 1427 1429 1430 1432 1433 1434 1436 1437 1438 1440 1443 1447 1452 1457 1461 1462 1464 1467 1469 1471 1472 1473 1474 1476 1478 1480
1455 1450 1446 1441 1437 1433 1429 1426 1422 1419 1417 1414 1413 1412 1412 1414 1415 1417 1419 1422 1424 1426 1427 1428 1429 1430 1432 1436 1439 1444 1448 1453 1457 1459 1462 1465 1467 1468 1470 1472 1474 1476 1478
1450 1446 1441 1436 1431 1427 1423 1418 1415 1411 1408 1405 1403 1402 1402 1403 1405 1407 1410 1414 1416 1418 1421 1422 1424 1424 1426 1429 1433 1437 1441 1445 1450 1454 1458 1460 1462 1464 1466 1468 1471 1474 1476
1446 1441 1436 1431 1426 1421 1416 1411 1407 1403 1399 1396 1394 1392 1392 1393 1395 1398 1401 1405 1408 1411 1414 1416 1419 1420 1421 1423 1427 1430 1435 1438 1443 1448 1452 1455 1458 1460 1461 1464 1468 1472 1474
1442 1437 1432 1426 1420 1414 1409 1404 1399 1395 1391 1388 1385 1384 1383 1383 1386 1389 1393 1396 1401 1404 1408 1411 1414 1416 1418 1420 1423 1425 1429 1433 1437 1442 1446 1450 1455 1457 1458 1461 1464 1468 1472
1438 1432 1426 1420 1414 1407 1402 1396 1391 1387 1383 1380 1378 1376 1375 1375 1377 1380 1384 1388 1393 1398 1403 1406 1409 1412 1415 1417 1420 1422 1425 1428 1431 1436 1440 1445 1449 1452 1454 1457 1460 1464 1468
1433 1427 1421 1414 1408 1402 1396 1390 1385 1380 1376 1373 1371 1369 1368 1368 1369 1373 1377 1382 1387 1393 1397 1401 1405 1409 1412 1414 1417 1419 1421 1423 1427 1431 1434 1439 1443 1447 1449 1452 1455 1459 1463
1427 1421 1415 1409 1403 1396 1390 1385 1379 1375 1370 1367 1365 1363 1362 1362 1364 1367 1371 1377 1383 1388 1392 1397 1401 1403 1407 1410 1413 1416 1417 1420 1422 1425 1428 1432 1437 1441 1444 1447 1451 1455 1459
1421 1416 1410 1405 1398 1393 1386 1381 1376 1371 1366 1363 1360 1358 1358 1358 1360 1363 1368 1373 1379 1384 1389 1393 1396 1398 1402 1405 1408 1411 1413 1415 1418 1420 1423 1426 1430 1434 1438 1442 1447 1451 1455
1416 1411 1406 1400 1394 1388 1383 1377 1372 1368 1364 1360 1358 1356 1355 1356 1358 1361 1365 1370 1375 1380 1385 1388 1391 1394 1397 1400 1403 1406 1409 1410 1412 1414 1417 1420 1425 1429 1433 1438 1442 1446 1451
1411 1406 1401 1396 1390 1385 1380 1375 1370 1365 1361 1358 1356 1354 1354 1355 1356 1359 1363 1367 1371 1376 1380 1383 1386 1389 1392 1396 1398 1400 1403 1405 1407 1408 1412 1416 1420 1424 1428 1432 1437 1442 1448
1406 1401 1397 1392 1387 1382 1377 1372 1368 1363 1360 1357 1355 1354 1353 1354 1355 1357 1360 1365 1369 1373 1377 1380 1383 1385 1387 1390 1393 1395 1397 1399 1400 1403 1407 1410 1414 1419 1424 1429 1434 1439 1446
1402 1397 1393 1389 1384 1380 1375 1370 1366 1362 1357 1355 1353 1352 1352 1352 1353 1355 1358 1361 1365 1368 1372 1375 1377 1380 1382 1384 1387 1389 1391 1392 1394 1397 1401 1404 1409 1414 1420 1426 1431 1438 1444
1398 1393 1389 1385 1381 1377 1373 1368 1364 1360 1356 1354 1352 1350 1350 1351 1352 1353 1355 1358 1360 1363 1367 1370 1372 1374 1377 1379 1381 1383 1385 1387 1389 1392 1395 1399 1404 1410 1416 1422 1429 1437 1444
1395 1389 1385 1382 1378 1375 1371 1367 1363 1359 1356 1353 1351 1350 1349 1349 1350 1351 1353 1355 1357 1359 1362 1365 1368 1370 1372 1374 1377 1378 1380 1382 1384 1387 1391 1395 1400 1406 1413 1421 1428 1436 1443
1392 1387 1383 1379 1376 1373 1369 1366 1363 1359 1356 1354 1352 1350 1349 1349 1349 1350 1352 1354 1356 1357 1359 1361 1364 1366 1368 1370 1372 1374 1376 1378 1381 1384 1388 1392 1397 1404 1412 1420 1428 1435 1443
1389 1385 1381 1377 1374 1371 1368 1365 1362 1360 1357 1355 1353 1352 1351 1350 1350 1350 1351 1352 1354 1355 1356 1358 1360 1362 1364 1366 1368 1370 1373 1375 1378 1381 1385 1389 1396 1403 1411 1419 1427 1434 1442
1387 1383 1379 1376 1373 1371 1368 1365 1362 1360 1358 1356 1355 1353 1352 1352 1352 1351 1352 1352 1353 1354 1355 1356 1357 1359 1361 1362 1365 1367 1369 1372 1374 1378 1382 1388 1395 1403 1411 1419 1427 1434 1441
1386 1382 1378 1376 1373 1370 1368 1365 1362 1360 1358 1357 1355 1354 1353 1352 1352 1352 1351 1351 1351 1352 1353 1353 1354 1355 1357 1359 1361 1363 1366 1368 1371 1376 1382 1389 1396 1404 1412 1419 1426 1434 1440
1386 1381 1377 1375 1372 1370 1368 1365 1363 1361 1359 1357 1356 1355 1354 1353 1352 1351 1350 1350 1350 1350 1350 1350 1351 1352 1353 1355 1357 1360 1363 1366 1370 1376 1382 1390 1397 1405 1413 1420 1426 1433 1439
1385 1381 1377 1375 1372 1370 1368 1366 1364 1362 1360 1358 1357 1355 1354 1352 1351 1350 1349 1349 1348 1348 1348 1348 1348 1349 1350 1352 1355 1358 1362 1366 1371 1378 1385 1392 1400 1407 1414 1420 1427 1432 1438
1385 1381 1377 1374 1372 1370 1369 1368 1366 1364 1362 1360 1358 1356 1355 1354 1352 1351 1349 1348 1347 1347 1347 1347 1347 1348 1350 1352 1354 1358 1362 1368 1374 1382 1389 1396 1402 1409 1415 1421 1427 1432 1437
1385 1381 1378 1375 1372 1371 1369 1369 1368 1366 1364 1363 1361 1359 1358 1356 1354 1352 1351 1349 1348 1348 1347 1348 1348 1350 1351 1353 1357 1361 1367 1373 1379 1386 1393 1399 1405 1411 1417 1422 1427 1432 1437